Regional Weather Roundup
Issued by NWS Tiyan, Guam

Home | Current Version | Previous Version | Text Only | Print | Product List | Glossary On
Versions: 1 2 3 4 5 6 7 8 9 10 11 12 13 14 15 16 17 18 19 20 21 22 23 24 25 26 27 28
000
ASGM40 PGUM 190512
RWRGUM
WEATHER ROUNDUP FOR THE MARIANAS
NATIONAL WEATHER SERVICE TIYAN GU
300 PM CHST THU OCT 19 2017

GUZ001>004-190600-
MARIANA ISLANDS-

CITY           SKY/WX    TMP DP  RH WIND       PRES   REMARKS
GUAM AIRPORT   SUNNY     84  75  74 NW17      29.75F HX  92
ANDERSEN AFB   MOSUNNY   84  73  70 NW15G21   29.75F HX  91
ROTA AIRPORT   MOSUNNY   82  73  74 NW16      29.75F
TINIAN AP      PTSUNNY   81  77  89 NW16      29.73F
SAIPAN AP      PTSUNNY   86  81  84 NW14      29.76S HX 102

$$





USA.gov is the U.S. government's official web portal to all federal, state and local government web resources and services.